Weather History for KFCM - January, 2014

Change the Weather History Date:

Wednesday, January 22, 2014

  Actual Average (KMSP) Record (KMSP)
Temperature  
Mean Temperature 0 °F 15 °F  
Max Temperature 8 °F 24 °F 51 °F (1942)
Min Temperature -9 °F 7 °F -34 °F (1936)
Degree Days  
Heating Degree Days 64 50  
Month to date heating degree days 1094  
Since 1 July heating degree days 4117  
Cooling Degree Days 0 0  
Month to date cooling degree days 0  
Year to date cooling degree days 0  
Moisture  
Dew Point -7 °F    
Average Humidity 66    
Maximum Humidity 84    
Minimum Humidity 52    
Precipitation  
Precipitation 0.00 in 0.03 in 0.89 in (1982)
Month to date precipitation 0.66  
Year to date precipitation 0.66  
Snow  
Snow 0.00 in 0.40 in 17.20 in (1982)
Month to date snowfall 8.8  
Since 1 July snowfall 30.6  
Snow Depth -    
Sea Level Pressure  
Sea Level Pressure 30.14 in    
Wind  
Wind Speed 12 mph (NW)    
Max Wind Speed 25 mph    
Max Gust Speed 34 mph    
Visibility 8 miles    
Events Snow    
T = Trace of Precipitation, MM = Missing Value Source: NWS Daily Summary

Daily Weather History Graph

Daily Weather History Graph

Search for Another Location

Airport or City:

Trip Planner

Search our weather history database for the weather conditions in past years. The results will help you decide how hot, cold, wet, or windy it might be!

Date:

Astronomy

Jan. 22, 2014 Rise Set
Actual Time 7:43 AM CST 5:08 PM CST
Civil Twilight 7:11 AM CST 5:40 PM CST
Nautical Twilight 6:35 AM CST 6:16 PM CST
Astronomical Twilight 6:00 AM CST 6:50 PM CST
Moon No Moon Rise 10:27 AM CST (1/22)
Length of Visible Light 10h 29m
Length of Day
9h 25m
Waning Gibbous, 65% of the Moon is Illuminated
Jan 22
Waning Gibbous
Jan 23
Last Quarter
Jan 30
New
Feb 6
First Quarter
Feb 14
Full

Hourly Weather History & Observations

Time (CST) Temp. Windchill Dew Point Humidity Pressure Visibility Wind Dir Wind Speed Gust Speed Precip Events Conditions
12:53 AM 7.0 °F 0.1 °F 3.0 °F 84% 30.01 in 3.0 mi WSW 3.5 mph - 0.00 in Snow Light Snow
1:53 AM 7.0 °F 0.1 °F 3.0 °F 84% 30.01 in 5.0 mi West 3.5 mph - 0.00 in Snow Light Snow
2:53 AM 8.1 °F -7.7 °F 1.9 °F 76% 30.01 in 8.0 mi NNW 12.7 mph 20.7 mph 0.00 in   Overcast
3:53 AM 7.0 °F -7.5 °F 1.0 °F 77% 30.03 in 10.0 mi NW 10.4 mph - N/A   Overcast
4:05 AM 6.8 °F -8.6 °F -0.4 °F 72% 29.95 in 10.0 mi NW 11.5 mph - N/A   Overcast
4:43 AM 5.0 °F -8.1 °F -0.4 °F 78% 29.96 in 10.0 mi NW 8.1 mph - N/A   Scattered Clouds
4:53 AM 5.0 °F -6.9 °F -0.9 °F 76% 30.03 in 10.0 mi NW 6.9 mph - N/A   Mostly Cloudy
5:53 AM 6.1 °F -6.8 °F -0.9 °F 73% 30.03 in 10.0 mi West 8.1 mph - N/A   Overcast
6:53 AM 6.1 °F -6.8 °F -0.0 °F 76% 30.04 in 3.0 mi WNW 8.1 mph - 0.00 in Snow Light Snow
7:03 AM 6.8 °F -7.8 °F -0.4 °F 72% 29.97 in 2.5 mi WNW 10.4 mph - 0.00 in Snow Light Snow
7:53 AM 6.1 °F -9.5 °F 1.0 °F 80% 30.04 in 4.0 mi WNW 11.5 mph - 0.00 in Snow Light Snow
8:23 AM 6.8 °F -9.3 °F -0.4 °F 72% 29.98 in 10.0 mi NW 12.7 mph - 0.00 in   Overcast
8:46 AM 6.8 °F -12.9 °F -2.2 °F 67% 29.98 in 5.0 mi NW 19.6 mph 26.5 mph 0.00 in Snow Blowing Snow
8:53 AM 6.1 °F -11.6 °F -2.0 °F 69% 30.06 in 6.0 mi NW 15.0 mph 26.5 mph 0.00 in   Haze
9:00 AM 6.8 °F -11.3 °F -2.2 °F 67% 30.00 in 9.0 mi NW 16.1 mph 23.0 mph N/A   Overcast
9:43 AM 3.2 °F -17.6 °F -5.8 °F 66% 30.02 in 2.5 mi NNW 19.6 mph 31.1 mph 0.00 in   Overcast
9:50 AM 3.2 °F -15.9 °F -5.8 °F 66% 30.02 in 10.0 mi NNW 16.1 mph 25.3 mph 0.00 in   Mostly Cloudy
9:53 AM 5.0 °F -14.7 °F -5.1 °F 63% 30.09 in 10.0 mi NNW 18.4 mph 25.3 mph 0.00 in   Mostly Cloudy
10:53 AM 3.9 °F -16.6 °F -7.1 °F 60% 30.12 in 9.0 mi NW 19.6 mph 28.8 mph N/A   Mostly Cloudy
11:13 AM 3.2 °F -18.1 °F -5.8 °F 66% 30.06 in 7.0 mi NNW 20.7 mph 28.8 mph N/A   Overcast
11:53 AM 3.9 °F -17.1 °F -8.0 °F 58% 30.13 in 10.0 mi North 20.7 mph 29.9 mph N/A   Mostly Cloudy
12:13 PM 3.2 °F -19.0 °F -7.6 °F 61% 30.07 in 2.0 mi NW 23.0 mph 33.4 mph N/A Snow Blowing Snow
12:23 PM 3.2 °F -18.1 °F -7.6 °F 61% 30.07 in 3.0 mi NNW 20.7 mph 32.2 mph N/A Snow Blowing Snow
12:42 PM 3.2 °F -18.6 °F -7.6 °F 61% 30.08 in 4.0 mi NNW 21.9 mph 33.4 mph N/A Snow Blowing Snow
12:53 PM 1.9 °F -20.7 °F -9.0 °F 60% 30.14 in 3.0 mi NNW 23.0 mph 34.5 mph N/A Snow Blowing Snow
1:17 PM 1.4 °F -21.0 °F -9.4 °F 61% 30.09 in 10.0 mi NW 21.9 mph 33.4 mph N/A   Scattered Clouds
1:53 PM 1.0 °F -20.9 °F -11.9 °F 55% 30.17 in 10.0 mi NNW 20.7 mph 33.4 mph N/A   Partly Cloudy
2:19 PM 1.4 °F -22.3 °F -11.2 °F 56% 30.12 in 10.0 mi NW 25.3 mph 32.2 mph N/A   Scattered Clouds
2:53 PM 1.0 °F -20.9 °F -11.0 °F 57% 30.21 in 10.0 mi NNW 20.7 mph 33.4 mph N/A   Scattered Clouds
3:53 PM 1.0 °F -18.7 °F -11.9 °F 55% 30.26 in 10.0 mi NNW 16.1 mph 23.0 mph N/A   Partly Cloudy
4:53 PM -0.0 °F -19.4 °F -14.1 °F 52% 30.31 in 10.0 mi NNW 15.0 mph 21.9 mph N/A   Clear
5:53 PM -0.9 °F -20.6 °F -14.1 °F 54% 30.35 in 10.0 mi NNW 15.0 mph 24.2 mph N/A   Clear
6:53 PM -2.0 °F -20.5 °F -14.1 °F 57% 30.39 in 10.0 mi NW 12.7 mph - N/A   Clear
7:53 PM -2.9 °F -21.6 °F -14.1 °F 59% 30.43 in 10.0 mi NW 12.7 mph 18.4 mph N/A   Clear
8:53 PM -4.0 °F -23.0 °F -15.0 °F 59% 30.46 in 10.0 mi NW 12.7 mph - N/A   Clear
9:53 PM -5.1 °F -27.2 °F -16.1 °F 59% 30.49 in 10.0 mi NNW 17.3 mph 24.2 mph N/A   Clear
10:53 PM -7.1 °F -28.4 °F -17.0 °F 62% 30.53 in 10.0 mi NNW 15.0 mph - N/A   Clear
11:53 PM -9.0 °F -28.4 °F -18.0 °F 65% 30.56 in 10.0 mi NW 11.5 mph - N/A   Clear